Temp
63 65 66 66 65 65 61 59 57 57 57 57 57 56 55 55 53 54 55 54 55 54 53 53 54 52 52 52 52 50 51 52
61 63 64 63 63 61 59 57 57 57 56 55 55 54 54 55 54 54 53 53 54 53 53 53 53 52 52 52 50 50 49 51
57 59 58 60 60 59 58 57 57 57 56 55 55 53 51 51 52 52 52 52 52 53 51 51 51 50 50 50 51 48 48 48
51 53 53 55 56 56 57 57 57 57 55 53 51 51 52 51 50 50 51 52 52 51 51 50 50 49 49 48 49 50 48 47
50 51 53 54 55 57 57 58 58 57 57 56 54 52 51 50 49 50 50 51 51 51 50 50 50 49 48 48 49 48 48 47
49 50 52 54 54 56 57 58 59 57 57 56 54 50 50 49 48 49 49 49 49 50 49 48 48 48 48 48 48 47 48 47
50 51 52 51 53 55 57 58 57 57 55 55 53 52 50 48 47 46 46 47 47 48 48 47 46 46 46 46 45 46 46 46
49 50 49 50 51 53 54 56 55 56 55 54 52 53 51 50 49 47 46 45 45 45 46 45 45 46 45 44 44 43 44 44
48 50 50 51 52 52 53 53 53 54 53 54 53 52 51 51 50 47 47 46 45 45 44 44 45 45 43 42 41 40 41 41
49 49 51 51 51 51 51 52 52 53 52 51 50 49 49 49 48 47 47 46 47 45 45 44 44 43 44 42 40 40 40 39
50 51 51 51 51 52 50 50 52 52 52 50 50 48 48 48 47 46 46 45 46 45 45 46 45 44 43 43 41 39 38 37
48 49 50 50 50 50 49 49 50 50 49 49 48 47 47 46 45 45 45 46 45 44 44 43 43 43 43 42 40 40 38 38
49 49 50 50 49 49 49 49 49 49 48 48 47 46 46 45 44 44 43 43 44 43 43 42 42 41 40 41 41 40 39 38
50 48 48 48 48 49 49 48 48 48 47 46 45 44 44 43 42 42 42 42 42 43 44 43 42 42 41 41 39 38 36 35
49 47 46 47 47 47 46 46 45 45 45 44 43 42 42 41 41 40 41 41 41 41 42 41 42 41 40 39 37 34 33 33
50 51 46 45 46 46 45 44 44 43 43 42 41 40 40 39 39 39 39 39 40 40 41 40 40 39 39 36 35 32 31 30
47 46 45 44 44 44 43 42 41 42 41 41 40 40 38 36 36 35 35 35 36 38 37 37 36 36 36 36 33 31 31 30
44 43 43 42 41 41 40 39 40 39 39 39 39 37 36 34 34 33 32 31 34 34 33 33 33 33 35 35 33 31 30 29
42 41 40 38 38 38 37 38 37 34 34 33 32 32 31 31 34 31 32 33 32 32 32 32 32 33 34 34 32 29 28 28
MSLP
1010.51 1009.74 1009.39 1009.69 1010.25 1010.91 1011.92 1012.91 1013.91 1014.84 1015.80 1016.59 1017.10 1017.51 1018.12 1018.38 1018.55 1018.63 1018.76 1018.92 1018.82 1019.02 1019.19 1019.48 1019.53 1019.97 1020.06 1020.23 1020.51 1021.02 1021.47 1021.46
1010.45 1009.75 1009.61 1009.83 1010.29 1010.78 1011.67 1012.82 1013.98 1015.00 1016.30 1017.34 1018.03 1018.70 1018.93 1019.16 1019.32 1019.08 1018.92 1019.13 1019.44 1019.39 1019.59 1019.71 1019.89 1020.30 1020.53 1020.62 1020.97 1021.21 1021.93 1021.94
1011.12 1010.32 1010.24 1010.68 1010.98 1011.53 1012.32 1013.15 1013.95 1014.59 1014.82 1016.51 1017.74 1018.70 1019.22 1019.52 1019.60 1019.49 1019.21 1019.47 1019.52 1019.48 1019.66 1019.84 1020.26 1020.65 1020.77 1020.99 1021.19 1021.62 1021.82 1021.98
1012.28 1011.85 1011.82 1012.20 1012.67 1012.88 1012.90 1013.47 1014.16 1015.23 1015.96 1016.18 1017.62 1018.19 1019.01 1019.74 1019.65 1019.53 1019.57 1019.55 1019.57 1019.52 1019.66 1019.94 1020.16 1020.34 1020.79 1020.95 1021.18 1021.56 1021.96 1022.15
1013.19 1013.04 1012.86 1013.10 1013.66 1014.11 1014.37 1014.70 1015.16 1015.84 1016.23 1016.63 1017.30 1017.98 1018.67 1019.67 1019.68 1019.58 1019.74 1019.66 1019.68 1019.69 1019.78 1019.88 1020.07 1020.40 1020.69 1020.73 1020.93 1021.31 1021.61 1022.04
1013.65 1013.66 1013.60 1013.59 1013.64 1014.02 1014.71 1015.24 1015.76 1016.24 1016.26 1016.57 1017.43 1018.17 1018.60 1019.07 1019.64 1019.68 1019.68 1019.59 1019.45 1019.81 1019.98 1019.98 1020.04 1020.24 1020.30 1020.78 1020.84 1021.18 1021.35 1021.63
1014.22 1014.04 1014.11 1014.31 1014.33 1014.39 1014.46 1014.94 1015.58 1015.74 1016.48 1017.08 1017.58 1018.09 1018.67 1019.20 1019.55 1019.57 1019.59 1019.42 1019.62 1019.63 1019.78 1020.06 1020.25 1020.41 1020.43 1020.48 1020.80 1021.12 1021.11 1021.12
1014.80 1014.68 1014.85 1014.88 1014.81 1014.93 1015.18 1015.43 1015.70 1015.88 1016.16 1016.50 1016.53 1017.11 1017.76 1018.51 1018.85 1019.49 1019.68 1019.56 1019.42 1019.64 1019.82 1019.89 1020.11 1020.38 1020.50 1020.63 1020.74 1020.92 1021.38 1021.35
1015.28 1015.09 1014.89 1014.82 1014.70 1014.65 1014.76 1014.96 1015.10 1015.34 1015.88 1016.06 1016.05 1016.88 1017.35 1017.58 1018.09 1018.47 1018.71 1019.12 1019.04 1019.33 1019.83 1019.94 1020.20 1020.06 1020.31 1020.75 1020.84 1020.97 1021.37 1021.52
1015.55 1015.48 1015.17 1015.00 1014.90 1014.64 1014.62 1014.96 1015.30 1015.73 1016.21 1016.49 1016.58 1016.78 1017.13 1017.44 1017.82 1018.04 1018.26 1018.68 1019.07 1019.02 1019.36 1019.77 1020.18 1020.32 1020.31 1020.65 1020.80 1021.15 1021.38 1021.64
1016.26 1016.27 1016.05 1015.54 1015.19 1014.81 1014.84 1015.07 1015.30 1015.28 1015.65 1016.07 1016.47 1016.70 1016.96 1017.24 1017.56 1017.84 1018.06 1018.39 1018.76 1018.77 1019.30 1019.56 1019.82 1020.10 1020.54 1020.78 1021.18 1021.50 1021.64 1021.93
1016.47 1016.30 1015.93 1015.80 1015.59 1015.30 1015.20 1015.29 1015.16 1015.24 1015.51 1015.88 1016.16 1016.53 1016.84 1017.14 1017.43 1017.73 1017.99 1018.32 1018.44 1018.69 1019.02 1019.26 1019.66 1019.96 1020.41 1020.78 1021.10 1021.50 1021.95 1022.43
1015.88 1016.07 1015.71 1015.63 1015.62 1015.36 1015.13 1015.23 1015.29 1015.22 1015.32 1015.77 1016.27 1016.59 1016.86 1017.24 1017.46 1017.68 1018.01 1018.14 1018.36 1018.65 1018.98 1019.34 1019.67 1020.25 1020.74 1021.22 1021.40 1021.58 1021.91 1022.47
1015.31 1015.46 1015.48 1015.30 1015.06 1015.10 1015.11 1015.08 1015.28 1015.60 1015.90 1016.18 1016.56 1016.89 1017.08 1017.42 1017.53 1017.64 1017.89 1018.11 1018.35 1018.58 1018.81 1019.20 1019.66 1020.09 1020.59 1021.04 1021.50 1022.10 1022.60 1022.80
1014.98 1015.00 1014.90 1015.26 1015.24 1015.25 1015.66 1015.79 1016.01 1016.15 1016.26 1016.48 1016.92 1017.06 1017.32 1017.53 1017.59 1017.62 1017.89 1018.04 1018.18 1018.42 1018.76 1019.18 1019.63 1020.09 1020.55 1021.17 1021.75 1022.52 1023.07 1023.63
1014.56 1014.67 1014.53 1014.79 1015.30 1015.43 1015.49 1015.81 1016.47 1016.06 1016.36 1016.77 1017.10 1017.11 1017.38 1017.53 1017.74 1017.83 1017.89 1018.02 1018.15 1018.44 1018.96 1019.40 1019.82 1020.29 1020.75 1021.15 1022.08 1022.76 1023.64 1024.24
1014.72 1014.76 1014.61 1014.85 1015.28 1015.46 1015.82 1016.45 1016.49 1016.29 1016.70 1017.10 1017.27 1017.36 1017.60 1017.80 1017.89 1018.10 1018.31 1018.40 1018.52 1018.78 1019.17 1019.78 1020.33 1020.77 1021.29 1021.64 1022.03 1022.96 1023.78 1024.22
1015.56 1015.70 1015.87 1015.91 1016.19 1016.58 1017.01 1017.08 1016.72 1016.87 1017.35 1017.63 1017.77 1017.94 1018.22 1018.28 1018.27 1018.26 1018.57 1018.84 1019.03 1019.46 1019.86 1020.10 1020.90 1021.32 1021.67 1022.00 1022.52 1023.24 1023.74 1024.42
1016.01 1016.34 1016.64 1017.04 1016.98 1017.30 1017.39 1017.36 1017.32 1017.46 1017.76 1018.00 1018.19 1018.48 1018.70 1018.84 1018.94 1019.02 1019.18 1019.50 1019.66 1019.90 1020.17 1020.49 1020.99 1021.58 1022.00 1022.43 1022.88 1023.63 1024.13 1024.63
Wind_Speed
8 10 10 10 9 11 10 8 8 9 7 7 6 7 5 4 3 4 5 4 4 4 3 3 3 2 3 2 3 4 2 4
8 9 7 7 9 12 13 13 11 10 6 5 4 2 1 1 2 5 5 5 4 4 3 2 3 1 1 2 2 4 3 3
15 9 3 4 7 10 10 11 12 10 10 6 4 3 3 2 1 3 5 3 2 3 3 2 2 1 1 1 2 2 2 3
10 11 11 10 9 6 9 12 12 8 7 9 5 4 3 1 1 1 1 1 1 2 3 3 3 3 3 1 1 2 2 1
6 7 11 12 11 10 10 9 10 8 7 6 5 3 4 1 2 1 1 0 1 1 2 3 3 2 2 3 3 3 3 4
6 6 8 10 10 11 10 7 5 3 5 4 4 4 4 4 3 5 3 2 1 1 2 3 3 3 4 3 3 4 3 3
5 6 6 6 5 8 11 10 7 6 4 5 6 6 4 4 4 4 4 2 2 2 3 3 2 3 3 3 2 2 4 4
3 6 5 4 5 5 4 5 5 7 9 10 10 10 9 8 6 4 4 3 3 5 4 5 4 3 3 3 3 3 2 2
3 5 6 7 7 8 7 7 7 7 4 5 3 2 2 4 5 4 4 4 3 4 5 4 4 5 5 3 2 3 3 3
1 3 4 5 6 7 8 7 4 3 5 5 6 5 6 6 6 4 4 4 3 6 6 5 5 4 4 5 4 4 4 3
8 7 6 4 5 5 5 4 7 7 7 5 5 6 6 4 4 6 5 4 6 5 6 6 6 5 5 4 3 3 4 2
6 7 6 7 6 4 5 6 6 5 3 2 3 2 3 3 5 5 6 4 6 7 7 6 6 6 6 5 5 5 5 3
5 8 7 7 7 5 6 6 6 2 1 1 2 1 1 4 5 6 5 6 5 5 5 6 6 5 5 4 4 5 6 5
8 7 8 8 7 6 5 3 1 2 2 3 3 2 1 3 4 4 4 4 4 5 6 7 7 7 7 5 6 6 6 6
9 7 7 8 7 4 3 5 4 2 3 4 3 3 3 3 3 2 3 4 5 6 5 6 5 7 8 7 8 8 7 6
9 10 7 4 3 2 1 2 2 3 5 4 3 3 3 2 1 1 3 5 5 5 5 5 6 7 6 10 9 9 8 6
9 9 5 6 4 2 4 2 3 6 6 6 5 5 4 3 3 3 4 4 6 6 6 7 7 5 15 14 12 9 7 7
6 6 5 6 7 7 5 4 5 6 6 6 6 5 3 2 3 5 5 4 5 6 6 7 6 7 14 14 15 7 8 7
3 3 4 4 3 4 4 6 6 6 5 5 4 4 4 3 3 4 4 3 5 6 7 7 7 6 14 15 16 8 7 7
Wind_Direction
329 245 203 180 165 152 139 123 108 98 80 63 50 58 40 42 57 64 50 29 48 74 84 95 94 87 90 89 107 54 85 103
318 284 212 162 147 142 145 127 121 114 82 73 56 32 349 341 349 45 63 53 46 67 67 64 61 108 143 128 97 108 79 146
335 345 49 136 140 131 123 130 129 128 130 131 116 131 85 76 30 50 58 66 86 111 116 100 110 92 88 151 97 111 111 226
3 34 46 51 49 81 123 124 120 109 93 99 98 107 82 55 13 46 45 82 68 121 137 156 161 143 172 179 171 153 153 237
23 55 75 80 73 60 73 87 99 119 138 117 127 139 131 232 249 299 256 318 69 135 155 165 169 152 169 176 168 179 150 181
55 67 100 108 112 115 113 114 125 143 142 139 138 151 153 156 208 197 209 211 188 168 177 167 168 167 161 190 172 190 181 169
54 71 85 91 107 129 141 144 147 148 146 166 174 176 169 177 197 204 211 190 209 194 159 168 173 180 178 162 156 213 193 165
83 100 98 105 115 112 89 125 153 185 187 188 180 191 185 205 195 203 197 191 207 216 184 177 171 184 157 143 136 126 191 192
121 151 160 168 173 172 166 178 191 201 231 248 195 194 217 205 200 190 197 209 195 180 201 194 201 169 156 145 115 123 129 129
210 176 187 192 189 190 186 191 210 192 219 224 218 191 194 211 210 191 192 199 206 187 190 189 187 180 159 155 147 149 139 137
352 342 319 284 235 223 201 180 214 216 216 210 210 209 212 210 174 216 215 207 205 180 188 175 170 170 167 153 140 134 126 136
304 304 296 285 297 256 225 226 231 235 225 211 221 233 206 181 208 226 221 198 196 195 186 179 182 172 165 151 143 139 134 128
256 258 269 273 275 267 223 221 231 266 353 332 311 10 173 213 229 239 219 220 196 194 173 172 163 153 145 151 149 141 134 121
251 249 252 252 239 247 251 244 279 13 36 44 31 11 332 264 259 255 225 214 203 183 172 173 165 160 148 131 117 104 91 92
284 250 233 251 243 236 327 349 358 35 49 44 4 349 311 291 274 234 221 196 184 183 175 163 146 134 125 117 113 105 88 89
268 275 265 223 182 197 79 53 326 46 41 25 351 334 329 357 20 149 156 176 164 146 128 111 124 123 131 125 119 109 117 93
284 277 220 179 159 101 40 352 16 35 26 5 356 11 22 36 55 64 82 90 88 98 106 119 120 109 127 127 125 125 120 117
328 9 35 52 48 30 35 26 33 31 14 352 355 3 18 65 112 105 101 95 100 93 96 103 95 113 133 133 128 119 123 122
17 33 57 58 66 50 33 27 29 21 17 8 11 22 38 41 56 86 107 100 110 117 111 110 120 132 141 135 120 116 115 115